Orbital Elements at Epoch 2459200.5 (2020-Dec-17.0) TDB
Reference: JPL 18 (heliocentric ecliptic J2000)
Element | Value | Uncertainty (1-sigma) | Units |
e | .1146743104610112 | 5.3254e-08 | |
a | 2.693528265384738 | 2.0039e-08 | au |
q | 2.3846497688445 | 1.4567e-07 | au |
i | 2.2731919355832 | 5.5668e-06 | deg |
node | 337.9040265898974 | 0.00011547 | deg |
peri | 23.09110299373912 | 0.00011733 | deg |
M | 224.4466847426945 | 2.2531e-05 | deg |
tp | 2459808.478715873221 (2022-Aug-16.97871587) | 0.00010444 | TDB |
period | 1614.658684657759 4.42 | 1.8019e-05 4.933e-08 | d yr |
n | .2229573366932994 | 2.4881e-09 | deg/d |
Q | 3.002406761924977 | 2.2337e-08 | au |
|
| | Orbit Determination Parameters
Additional Information
|